Location: Newark
(49.2191°N, 12.6671°E)
Time: 05:12:21
(UTC+00:00)

Transit 4A - Pass Details

Date: 26 January 2020
Orbit: 872 x 973 km, 66.8° (Epoch: 17 February)

Event Time Altitude Azimuth Distance (km) Brightness Sun altitude
Rises 11:39:27 0° 322° (NW) 3,484 10.5 21.9°
Reaches altitude 10° 11:42:36 10° 338° (NNW) 2,535 9.8 21.8°
Maximum altitude 11:46:58 21° 27° (NNE) 1,859 9.1 21.8°
Drops below altitude 10° 11:51:20 10° 75° (ENE) 2,528 10.0 21.7°
Sets 11:54:27 0° 91° (E) 3,471 10.8 21.6°
